1496991600.96,6700,18.31,74174.0,21.99,-18.45,-20.09,0,*7C
1496991602.19,6701,18.31,74168.8,22.03,-18.07,-19.75,0,*7A
1496991603.47,6702,18.31,74168.3,21.99,-18.93,-20.53,0,*7A
1496991604.7,6703,18.31,74168.8,21.99,-19.51,-21.09,0,*7A
1496991605.96,6704,18.31,74174.3,21.99,-18.93,-20.59,0,*76
1496991607.21,6705,18.31,74170.8,21.99,-18.55,-20.09,0,*78
1496991608.45,6706,18.31,74172.0,21.99,-19.99,-21.57,0,*70
1496991609.66,6707,18.31,74170.5,21.97,-19.13,-20.69,0,*71
1496991610.88,6708,18.31,74172.3,21.95,-19.91,-21.63,0,*7D
1496991612.11,6709,18.31,74170.5,21.95,-20.69,-22.37,0,*73
1496991613.36,6710,18.31,74174.5,21.95,-19.57,-21.13,0,*79
1496991614.64,6711,18.31,74172.3,21.95,-19.65,-21.33,0,*7B
1496991615.89,6712,18.31,74174.5,21.93,-20.83,-22.73,0,*7B
1496991617.14,6713,18.31,74174.5,21.91,-21.33,-22.93,0,*7C
1496991618.33,6714,18.31,74174.3,21.87,-20.09,-21.73,0,*79
1496991619.52,6715,18.31,74174.3,21.87,-20.09,-21.63,0,*79
1496991620.78,6716,18.31,74172.0,21.87,-19.61,-21.27,0,*7E
1496991622.0,6717,18.31,74174.0,21.85,-20.69,-22.27,0,*7C
1496991623.27,6718,18.31,74174.8,21.85,-20.99,-22.73,0,*7D
1496991624.46,6719,18.31,74172.3,21.83,-22.27,-24.05,0,*7A
1496991625.72,6720,18.31,74172.3,21.79,-21.23,-22.77,0,*71
1496991626.95,6721,18.31,74172.8,21.73,-20.59,-22.27,0,*73
1496991628.19,6722,18.31,74174.3,21.73,-21.93,-23.69,0,*7C
1496991629.44,6723,18.31,74174.0,21.73,-20.83,-22.57,0,*71
1496991630.69,6724,18.31,74174.5,21.69,-19.99,-21.57,0,*7F
1496991631.9,6725,18.31,74172.3,21.69,-20.29,-21.73,0,*79
1496991633.14,6726,18.31,74174.8,21.69,-20.29,-21.97,0,*70
1496991634.34,6727,18.31,74172.8,21.67,-21.13,-22.87,0,*75
1496991635.58,6728,18.31,74172.3,21.65,-22.73,-24.57,0,*76
1496991636.85,6729,18.31,74172.5,21.63,-24.21,-25.97,0,*7D
1496991638.13,6730,18.31,74174.0,21.57,-23.85,-25.75,0,*77
1496991639.38,6731,18.31,74172.3,21.51,-22.63,-24.41,0,*7F
1496991640.66,6732,18.31,74172.3,21.51,-24.25,-26.17,0,*79
1496991641.92,6733,18.31,74172.5,21.47,-23.33,-25.13,0,*78
1496991643.2,6734,18.31,74170.5,21.43,-23.23,-25.03,0,*7B
1496991644.46,6735,18.31,74174.5,21.39,-22.37,-23.99,0,*76
1496991645.69,6736,18.31,74172.8,21.39,-21.73,-23.43,0,*71
1496991646.93,6737,18.31,74176.0,21.37,-23.65,-25.61,0,*7D
1496991648.19,6738,18.31,74170.0,21.31,-25.91,-28.05,0,*76
1496991649.42,6739,18.31,74172.5,21.25,-23.09,-24.83,0,*77
1496991650.65,6740,18.31,74174.0,21.25,-22.77,-24.61,0,*7D
1496991651.88,6741,18.31,74174.5,21.25,-21.93,-23.65,0,*76
1496991653.07,6742,18.31,74174.0,21.21,-23.13,-24.97,0,*71
1496991654.33,6743,18.31,74174.0,21.19,-22.17,-23.99,0,*77
1496991655.52,6744,18.31,74174.0,21.17,-22.67,-24.35,0,*78
1496991656.73,6745,18.31,74172.5,21.17,-22.87,-24.67,0,*70
1496991657.94,6746,18.31,74178.0,21.13,-22.77,-24.57,0,*7B
1496991659.19,6747,18.31,74172.3,21.11,-22.97,-24.71,0,*72
1496991660.42,6748,18.31,74174.3,21.11,-22.53,-24.31,0,*71
1496991661.65,6749,18.31,74176.3,21.07,-22.11,-23.95,0,*78
1496991662.88,6750,18.31,74174.5,21.05,-22.31,-24.15,0,*7F
1496991664.1,6751,18.31,74178.0,21.03,-24.35,-26.23,0,*7D
1496991665.35,6752,18.31,74172.0,20.99,-23.65,-25.49,0,*71
1496991666.57,6753,18.31,74176.8,20.97,-22.47,-24.35,0,*75
1496991667.82,6754,18.31,74178.3,20.95,-24.35,-26.33,0,*77
1496991669.05,6755,18.31,74174.8,20.91,-24.51,-26.29,0,*7B
1496991670.29,6756,18.31,74174.3,20.89,-23.19,-25.09,0,*7B
1496991671.51,6757,18.31,74172.5,20.85,-22.41,-24.31,0,*70
1496991672.75,6758,18.31,74172.3,20.85,-21.67,-23.59,0,*71
1496991673.97,6759,18.31,74172.3,20.85,-21.47,-23.09,0,*77
1496991675.16,6760,18.31,74174.3,20.83,-20.93,-22.53,0,*7D
1496991676.36,6761,18.31,74174.8,20.83,-20.93,-22.53,0,*7C
1496991677.61,6762,18.31,74174.3,20.83,-21.03,-22.77,0,*71
1496991678.85,6763,18.31,74174.0,20.81,-23.23,-25.19,0,*7D
1496991680.07,6764,18.31,74176.0,20.81,-20.63,-22.27,0,*77
1496991681.27,6765,18.31,74174.8,20.83,-20.59,-22.27,0,*7D
1496991682.51,6766,18.31,74172.8,20.81,-22.93,-25.03,0,*79
1496991683.76,6767,18.31,74174.3,20.77,-23.09,-24.87,0,*7E
1496991684.98,6768,18.31,74172.3,20.77,-22.57,-24.35,0,*72
1496991686.21,6769,18.31,74172.5,20.75,-22.67,-24.71,0,*72
1496991687.45,6770,18.31,74174.0,20.73,-22.97,-24.87,0,*7A
1496991688.7,6771,18.31,74174.8,20.71,-22.47,-24.15,0,*7F
1496991689.92,6772,18.31,74172.8,20.73,-20.89,-22.57,0,*7E
1496991691.13,6773,18.31,74174.5,20.71,-22.07,-23.95,0,*76
1496991692.35,6774,18.31,74174.8,20.69,-22.41,-24.31,0,*73
1496991693.6,6775,18.31,74172.3,20.69,-22.77,-24.77,0,*75
1496991694.85,6776,18.31,74176.8,20.67,-21.57,-23.19,0,*76
1496991696.08,6777,18.31,74170.8,20.67,-21.43,-23.19,0,*72
1496991697.3,6778,18.31,74172.8,20.63,-23.59,-25.81,0,*77
1496991698.53,6779,18.31,74174.0,20.63,-24.35,-26.17,0,*77
1496991699.77,6780,18.31,74172.3,20.59,-21.93,-23.65,0,*71
1496991700.98,6781,18.31,74174.3,20.57,-24.05,-25.65,0,*72
1496991702.21,6782,18.31,74168.3,20.55,-24.51,-26.39,0,*78
1496991703.4,6783,18.31,74174.8,20.53,-22.67,-24.61,0,*73
1496991704.6,6784,18.31,74168.8,20.53,-21.73,-23.43,0,*75
1496991705.85,6785,18.31,74174.0,20.51,-22.97,-24.87,0,*70
1496991707.07,6786,18.31,74174.3,20.49,-21.77,-23.53,0,*79
1496991708.27,6787,18.31,74172.3,20.49,-23.09,-25.13,0,*71
1496991709.52,6788,18.31,74174.8,20.43,-25.71,-27.89,0,*7C
1496991710.75,6789,18.31,74172.3,20.39,-24.51,-26.45,0,*72
1496991711.99,6790,18.31,74172.8,20.39,-22.83,-24.67,0,*71
1496991713.24,6791,18.31,74174.8,20.37,-21.87,-23.65,0,*7C
1496991714.47,6792,18.31,74174.0,20.37,-21.47,-23.19,0,*78
1496991715.71,6793,18.31,74172.3,20.37,-20.53,-22.21,0,*77
1496991716.97,6794,18.31,74174.8,20.35,-20.99,-22.63,0,*72
1496991718.19,6795,18.31,74176.0,20.37,-21.47,-23.19,0,*7F
1496991719.41,6796,18.31,74174.8,20.37,-22.11,-24.11,0,*73
1496991720.66,6797,18.31,74174.8,20.37,-24.11,-25.97,0,*7B
1496991721.86,6798,18.31,74176.3,20.33,-22.67,-24.47,0,*7B
1496991723.13,6799,18.31,74176.0,20.31,-22.47,-24.11,0,*79
1496991724.36,6800,18.31,74172.3,20.31,-21.39,-23.09,0,*72
1496991725.58,6801,18.31,74174.3,20.29,-22.41,-24.15,0,*7C
1496991726.78,6802,18.31,74178.5,20.29,-22.97,-24.93,0,*7A
1496991727.99,6803,18.31,74174.5,20.27,-23.75,-25.49,0,*7E
1496991729.26,6804,18.31,74174.8,20.25,-22.47,-24.25,0,*70
1496991730.48,6805,18.31,74174.8,20.21,-22.83,-24.77,0,*7A
1496991731.73,6806,18.31,74172.3,20.21,-23.19,-24.97,0,*75
1496991733.0,6807,18.31,74178.5,20.21,-21.87,-23.53,0,*7E
1496991734.27,6808,18.31,74174.3,20.21,-21.87,-23.65,0,*74
1496991735.51,6809,18.31,74170.8,20.21,-21.73,-23.49,0,*70
1496991736.73,6810,18.31,74172.8,20.17,-21.93,-23.59,0,*72
1496991737.94,6811,18.31,74172.0,20.15,-23.89,-25.49,0,*7F
1496991739.17,6812,18.31,74174.8,20.11,-26.07,-27.99,0,*74
1496991740.39,6813,18.31,74174.8,20.09,-25.91,-27.71,0,*76
1496991741.61,6814,18.31,74172.8,20.03,-25.13,-26.97,0,*78
1496991742.84,6815,18.31,74174.8,20.03,-22.53,-24.25,0,*71
1496991744.05,6816,18.31,74176.5,20.01,-22.07,-23.79,0,*7F
1496991745.28,6817,18.31,74178.0,20.01,-22.67,-24.47,0,*72
1496991746.53,6818,18.31,74178.3,20.01,-23.75,-25.55,0,*7D
1496991747.74,6819,18.31,74174.0,19.99,-22.57,-24.47,0,*74
1496991748.97,6820,18.31,74176.0,19.99,-22.11,-23.85,0,*75
1496991750.16,6821,18.31,74174.3,19.95,-22.03,-23.75,0,*74
1496991751.35,6822,18.31,74174.8,19.95,-22.11,-23.89,0,*77
1496991752.6,6823,18.31,74172.8,19.93,-22.97,-24.83,0,*73
1496991753.85,6824,18.31,74174.8,19.93,-23.75,-25.81,0,*7A
1496991755.09,6825,18.31,74174.3,19.91,-25.29,-27.39,0,*77
1496991756.31,6826,18.31,74174.5,19.85,-23.39,-25.23,0,*7F
1496991757.58,6827,18.31,74172.3,19.85,-22.73,-24.41,0,*74
1496991758.82,6828,18.31,74172.3,19.87,-22.21,-23.95,0,*70
1496991760.06,6829,18.31,74174.3,19.81,-23.69,-25.65,0,*73
1496991761.28,6830,18.31,74172.3,19.81,-22.07,-23.79,0,*79
1496991762.55,6831,18.31,74176.5,19.81,-22.21,-23.99,0,*72
1496991763.76,6832,18.31,74172.8,19.79,-22.11,-23.95,0,*79
1496991764.98,6833,18.31,74174.0,19.79,-22.83,-24.67,0,*79
1496991766.19,6834,18.31,74178.8,19.79,-23.03,-24.93,0,*7C
1496991767.44,6835,18.31,74174.3,19.77,-22.11,-23.85,0,*71
1496991768.67,6836,18.31,74178.0,19.77,-21.77,-23.43,0,*7B
1496991769.94,6837,18.31,74176.8,19.77,-21.97,-23.85,0,*7E
1496991771.16,6838,18.31,74174.8,19.75,-22.31,-24.05,0,*73
1496991772.41,6839,18.31,74178.8,19.71,-21.83,-23.49,0,*73
1496991773.62,6840,18.31,74174.0,19.71,-22.73,-24.57,0,*79
1496991774.84,6841,18.31,74176.5,19.75,-21.63,-23.29,0,*70
1496991776.09,6842,18.31,74178.8,19.75,-21.23,-23.03,0,*7F
1496991777.29,6843,18.31,74172.8,19.71,-21.17,-22.93,0,*75
1496991778.49,6844,18.31,74174.5,19.71,-21.09,-22.67,0,*76
1496991779.72,6845,18.31,74174.5,19.71,-20.59,-22.21,0,*71
1496991780.96,6846,18.31,74174.3,19.71,-21.57,-23.29,0,*74
1496991782.16,6847,18.31,74176.0,19.71,-22.63,-24.47,0,*7E
1496991783.43,6848,18.31,74176.3,19.69,-21.57,-23.33,0,*78
1496991784.65,6849,18.31,74174.8,19.69,-21.13,-22.97,0,*76
1496991785.9,6850,18.31,74178.0,19.69,-21.63,-23.49,0,*7B
1496991787.1,6851,18.31,74172.8,19.67,-23.43,-25.39,0,*75
1496991788.36,6852,18.31,74172.5,19.67,-21.53,-23.23,0,*78
1496991789.62,6853,18.31,74174.8,19.65,-21.47,-23.19,0,*77
1496991790.84,6854,18.31,74176.0,19.65,-22.27,-24.05,0,*7F
1496991792.11,6855,18.31,74176.3,19.63,-22.31,-24.21,0,*79
1496991793.34,6856,18.31,74176.3,19.63,-23.43,-25.35,0,*7A
1496991794.58,6857,18.31,74174.3,19.61,-24.11,-26.13,0,*7E
1496991795.79,6858,18.31,74172.5,19.57,-22.41,-24.15,0,*73
1496991797.01,6859,18.31,74178.3,19.57,-22.27,-23.99,0,*71
1496991798.21,6860,18.31,74172.3,19.57,-21.13,-22.93,0,*74
1496991799.46,6861,18.31,74176.0,19.55,-21.33,-22.93,0,*75
1496991800.7,6862,18.31,74176.3,19.55,-21.97,-23.79,0,*7D
1496991801.94,6863,18.31,74174.3,19.55,-22.41,-24.25,0,*7A
1496991803.19,6864,18.31,74174.8,19.55,-22.67,-24.41,0,*7B
1496991804.44,6865,18.31,74174.0,19.49,-21.27,-23.03,0,*71
1496991805.64,6866,18.31,74176.5,19.53,-22.93,-24.77,0,*71
1496991806.85,6867,18.31,74174.8,19.49,-23.79,-25.61,0,*78
1496991808.06,6868,18.31,74172.3,19.47,-22.07,-23.89,0,*71
1496991809.29,6869,18.31,74176.5,19.45,-21.97,-23.75,0,*7B
1496991810.52,6870,18.31,74176.3,19.45,-21.87,-23.43,0,*77
1496991811.77,6871,18.31,74176.8,19.45,-22.47,-24.41,0,*7C
1496991812.99,6872,18.31,74172.5,19.43,-23.39,-25.35,0,*73
1496991814.22,6873,18.31,74176.3,19.43,-23.43,-25.39,0,*73
1496991815.48,6874,18.31,74176.3,19.39,-24.31,-26.17,0,*74
1496991816.71,6875,18.31,74174.5,19.37,-23.09,-25.03,0,*71
1496991817.93,6876,18.31,74174.5,19.37,-21.63,-23.33,0,*79
1496991819.17,6877,18.31,74172.3,19.33,-21.83,-23.65,0,*71
1496991820.43,6878,18.31,74172.5,19.33,-21.53,-23.29,0,*7B
1496991821.65,6879,18.31,74178.8,19.33,-22.67,-24.41,0,*77
1496991822.88,6880,18.31,74178.0,19.33,-23.29,-25.13,0,*7C
1496991824.13,6881,18.31,74172.0,19.31,-23.85,-25.75,0,*79
1496991825.35,6882,18.31,74176.0,19.27,-21.77,-23.65,0,*75
1496991826.57,6883,18.31,74176.5,19.31,-20.99,-22.63,0,*75
1496991827.76,6884,18.31,74176.5,19.31,-20.93,-22.63,0,*78
1496991829.0,6885,18.31,74178.5,19.31,-21.83,-23.65,0,*7E
1496991830.21,6886,18.31,74178.0,19.27,-21.97,-23.79,0,*72
1496991831.43,6887,18.31,74178.8,19.27,-21.43,-23.23,0,*75
1496991832.71,6888,18.31,74178.0,19.25,-22.47,-24.41,0,*7C
1496991833.95,6889,18.31,74174.3,19.25,-22.97,-25.03,0,*77
1496991835.17,6890,18.31,74178.0,19.23,-22.77,-24.61,0,*72
1496991836.4,6891,18.31,74174.8,19.19,-23.49,-25.09,0,*79
1496991837.62,6892,18.31,74176.5,19.19,-21.63,-23.23,0,*7E
1496991838.82,6893,18.31,74176.3,19.19,-21.13,-22.97,0,*76
1496991840.01,6894,18.31,74174.5,19.19,-22.57,-24.35,0,*7C
1496991841.23,6895,18.31,74176.3,19.17,-22.11,-24.05,0,*72
1496991842.45,6896,18.31,74178.5,19.19,-21.47,-23.33,0,*7D
1496991843.71,6897,18.31,74178.5,19.17,-21.23,-23.09,0,*79
1496991844.92,6898,18.31,74172.5,19.19,-21.63,-23.53,0,*73
1496991846.16,6899,18.31,74176.0,19.15,-22.73,-24.71,0,*7B
1496991847.36,6900,18.31,74178.0,19.15,-24.05,-26.03,0,*7A
1496991848.56,6901,18.31,74178.3,19.11,-22.67,-24.51,0,*78
1496991849.76,6902,18.31,74174.8,19.11,-21.17,-22.97,0,*73
1496991850.99,6903,18.31,74174.3,19.11,-21.43,-23.23,0,*7D
1496991852.23,6904,18.31,74172.5,19.09,-20.63,-22.21,0,*73
1496991853.5,6905,18.31,74178.8,19.09,-20.49,-22.21,0,*7A
1496991854.77,6906,18.31,74174.5,19.13,-21.57,-23.49,0,*73
1496991856.02,6907,18.31,74178.5,19.11,-21.33,-23.19,0,*77
1496991857.22,6908,18.31,74178.0,19.11,-20.69,-22.57,0,*7D
1496991858.42,6909,18.31,74174.3,19.11,-19.91,-21.47,0,*73
1496991859.66,6910,18.31,74178.3,19.13,-20.49,-22.11,0,*76
1496991860.9,6911,18.31,74174.0,19.13,-20.79,-22.67,0,*75
1496991862.1,6912,18.31,74174.8,19.11,-21.13,-22.87,0,*77
1496991863.33,6913,18.31,74172.5,19.11,-20.39,-22.17,0,*76
1496991864.55,6914,18.31,74174.3,19.11,-20.83,-22.67,0,*77
1496991865.83,6915,18.31,74174.3,19.13,-20.49,-22.31,0,*71
1496991867.05,6916,18.31,74178.3,19.11,-22.87,-24.83,0,*7F
1496991868.32,6917,18.31,74172.8,19.09,-21.87,-23.69,0,*77
1496991869.59,6918,18.31,74176.3,19.09,-22.17,-23.99,0,*7D
1496991870.79,6919,18.31,74178.5,19.07,-21.13,-22.87,0,*7B
1496991872.04,6920,18.31,74178.3,19.07,-21.23,-23.19,0,*74
1496991873.26,6921,18.31,74178.8,19.03,-22.27,-24.25,0,*7E
1496991874.52,6922,18.31,74174.5,19.01,-21.93,-23.85,0,*7E
1496991875.75,6923,18.31,74174.8,19.01,-22.97,-24.97,0,*7C
1496991877.02,6924,18.31,74176.8,19.01,-22.17,-24.11,0,*7D
1496991878.22,6925,18.31,74174.0,18.97,-22.11,-24.05,0,*71
1496991879.43,6926,18.31,74174.8,18.97,-22.87,-24.67,0,*79
1496991880.66,6927,18.31,74174.0,18.97,-22.47,-24.51,0,*71
1496991881.89,6928,18.31,74174.8,18.97,-20.89,-22.73,0,*78
1496991883.09,6929,18.31,74176.3,18.97,-21.13,-22.93,0,*75
1496991884.31,6930,18.31,74176.3,18.97,-20.53,-22.37,0,*76
1496991885.54,6931,18.31,74176.3,18.97,-21.33,-23.09,0,*7C
1496991886.8,6932,18.31,74174.0,18.95,-20.35,-21.97,0,*7F
1496991888.02,6933,18.31,74178.8,18.95,-20.69,-22.41,0,*7F
1496991889.25,6934,18.31,74178.0,18.97,-21.83,-23.75,0,*79
1496991890.47,6935,18.31,74176.5,18.97,-22.41,-24.41,0,*75
1496991891.69,6936,18.31,74176.0,18.95,-20.59,-22.37,0,*78
1496991892.91,6937,18.31,74174.0,18.97,-20.73,-22.73,0,*73
1496991894.13,6938,18.31,74178.0,18.95,-20.73,-22.57,0,*78
1496991895.37,6939,18.31,74174.0,18.93,-21.33,-23.29,0,*72
1496991896.65,6940,18.31,74176.5,18.95,-21.33,-23.23,0,*70
1496991897.88,6941,18.31,74172.3,18.93,-20.63,-22.47,0,*70
1496991899.08,6942,18.31,74178.3,18.93,-20.39,-22.03,0,*7C
1496991900.3,6943,18.31,74176.3,18.97,-20.09,-21.83,0,*71
1496991901.52,6944,18.31,74178.0,18.95,-19.91,-21.63,0,*71
1496991902.71,6945,18.31,74172.3,18.93,-20.29,-22.11,0,*79
1496991903.93,6946,18.31,74176.0,18.95,-19.91,-21.63,0,*73
1496991905.17,6947,18.31,74178.0,18.97,-19.81,-21.53,0,*72
1496991906.42,6948,18.31,74178.8,18.99,-19.31,-21.13,0,*7C
1496991907.67,6949,18.31,74174.0,19.01,-18.99,-20.79,0,*73
1496991908.95,6950,18.31,74178.5,18.99,-19.41,-21.23,0,*71
1496991910.22,6951,18.31,74178.5,19.01,-20.53,-22.73,0,*7F
1496991911.47,6952,18.31,74176.5,19.01,-20.99,-22.87,0,*71
1496991912.69,6953,18.31,74176.3,18.99,-20.63,-22.53,0,*7C
1496991913.94,6954,18.31,74178.0,18.99,-21.33,-23.39,0,*72
1496991915.16,6955,18.31,74176.3,18.99,-20.69,-22.53,0,*70
1496991916.38,6956,18.31,74174.3,18.99,-19.71,-21.47,0,*76
1496991917.63,6957,18.31,74178.5,18.99,-19.23,-21.09,0,*7A
1496991918.84,6958,18.31,74178.5,18.99,-19.75,-21.73,0,*7B
1496991920.07,6959,18.31,74178.5,19.03,-21.03,-23.09,0,*7D
1496991921.32,6960,18.31,74178.0,19.01,-19.57,-21.43,0,*73
1496991922.57,6961,18.31,74176.5,19.01,-20.53,-22.67,0,*79
1496991923.85,6962,18.31,74178.5,19.01,-21.27,-23.19,0,*70
1496991925.07,6963,18.31,74172.5,19.01,-22.07,-24.31,0,*7D
1496991926.29,6964,18.31,74178.8,18.97,-21.63,-23.69,0,*7F
1496991927.5,6965,18.31,74176.3,18.97,-23.69,-25.87,0,*70
1496991928.76,6966,18.31,74178.3,18.93,-22.77,-24.25,0,*70
1496991929.98,6967,18.31,74178.5,18.93,-21.33,-23.39,0,*78
1496991931.2,6968,18.31,74178.3,18.93,-22.47,-24.47,0,*79
1496991932.43,6969,18.31,74178.3,18.91,-22.87,-25.09,0,*7D
1496991933.67,6970,18.31,74172.3,18.89,-24.87,-27.45,0,*70
1496991934.88,6971,18.31,74174.5,18.85,-25.49,-27.71,0,*79
1496991936.1,6972,18.31,74174.8,18.79,-25.39,-27.89,0,*79
1496991937.3,6973,18.31,74172.5,18.73,-25.65,-27.89,0,*7B
1496991938.54,6974,18.31,74178.0,18.71,-22.97,-25.09,0,*7E
1496991939.79,6975,18.31,74174.0,18.71,-24.47,-26.77,0,*7E
1496991941.04,6976,18.31,74172.8,18.67,-24.15,-26.29,0,*76
1496991942.23,6977,18.31,74174.5,18.67,-22.11,-24.35,0,*7A
1496991943.42,6978,18.31,74176.8,18.67,-22.27,-24.51,0,*72
1496991944.64,6979,18.31,74172.0,18.67,-22.73,-24.47,0,*75
1496991945.89,6980,18.31,74172.3,18.65,-23.75,-25.81,0,*7D
1496991947.09,6981,18.31,74172.8,18.63,-23.13,-25.19,0,*7B
1496991948.36,6982,18.31,74176.8,18.57,-23.69,-25.97,0,*74
1496991949.61,6983,18.31,74172.8,18.57,-24.83,-27.13,0,*78
1496991950.88,6984,18.31,74174.8,18.53,-25.55,-27.19,0,*7B
1496991952.13,6985,18.31,74174.8,18.51,-22.77,-25.03,0,*76
1496991953.34,6986,18.31,74174.8,18.49,-24.93,-27.13,0,*73
1496991954.53,6987,18.31,74172.8,18.47,-25.19,-27.77,0,*7D
1496991955.8,6988,18.31,74172.8,18.45,-24.67,-26.97,0,*77
1496991957.07,6989,18.31,74172.8,18.41,-21.87,-24.11,0,*75
1496991958.34,6990,18.31,74174.5,18.41,-21.27,-23.29,0,*7B
1496991959.58,6991,18.31,74174.3,18.43,-19.81,-21.83,0,*7D
1496991960.82,6992,18.31,74174.0,18.43,-19.81,-21.67,0,*74
1496991962.04,6993,18.31,74176.8,18.45,-19.75,-21.77,0,*79
1496991963.26,6994,18.31,74174.8,18.47,-19.57,-21.43,0,*7B
1496991964.49,6995,18.31,74174.5,18.51,-19.17,-21.27,0,*7B
1496991965.73,6996,18.31,74172.3,18.49,-19.47,-21.33,0,*71
1496991966.96,6997,18.31,74172.8,18.51,-19.13,-21.03,0,*7B
1496991968.21,6998,18.31,74174.0,18.53,-19.61,-21.63,0,*75
1496991969.48,6999,18.31,74174.5,18.53,-22.47,-24.83,0,*73
1496991970.7,7000,18.31,74172.3,18.51,-21.77,-23.85,0,*78
1496991971.92,7001,18.31,74174.0,18.51,-20.05,-22.17,0,*77
1496991973.13,7002,18.38,74176.3,18.51,-20.29,-22.21,0,*7F
1496991974.35,7003,18.31,74172.3,18.53,-19.91,-21.77,0,*75
1496991975.59,7004,18.31,74172.5,18.55,-20.15,-22.17,0,*77
1496991976.81,7005,18.31,74174.3,18.55,-20.83,-22.87,0,*70
1496991978.09,7006,18.31,74174.8,18.53,-19.31,-21.23,0,*7B
1496991979.34,7007,18.31,74172.5,18.53,-20.59,-22.73,0,*78
1496991980.56,7008,18.31,74174.3,18.53,-19.47,-21.47,0,*76
1496991981.78,7009,18.31,74174.5,18.55,-18.99,-21.03,0,*73
1496991983.03,7010,18.31,74176.8,18.57,-19.85,-21.93,0,*7C
1496991984.25,7011,18.31,74176.0,18.59,-19.07,-20.99,0,*72
1496991985.45,7012,18.31,74178.0,18.59,-18.65,-20.63,0,*71
1496991986.67,7013,18.31,74176.5,18.63,-18.25,-20.15,0,*7C
1496991987.94,7014,18.31,74174.5,18.65,-19.23,-21.33,0,*7F
1496991989.14,7015,18.31,74172.3,18.63,-19.51,-21.47,0,*7E
1496991990.39,7016,18.31,74178.0,18.65,-18.59,-20.59,0,*7C
1496991991.61,7017,18.31,74178.3,18.67,-18.49,-20.53,0,*74
1496991992.83,7018,18.31,74178.8,18.69,-20.19,-22.41,0,*7A
1496991994.06,7019,18.31,74176.5,18.69,-19.03,-21.03,0,*7F
1496991995.28,7020,18.31,74174.8,18.67,-20.89,-23.23,0,*73
1496991996.53,7021,18.31,74174.3,18.67,-20.83,-23.03,0,*7A
1496991997.75,7022,18.31,74178.0,18.67,-21.63,-23.85,0,*78
1496991998.99,7023,18.31,74176.8,18.67,-18.89,-21.03,0,*7B
1496992000.22,7024,18.31,74176.8,18.65,-20.43,-22.63,0,*76
1496992001.46,7025,18.31,74176.8,18.65,-20.09,-22.17,0,*7A
1496992002.69,7026,18.31,74174.8,18.63,-21.33,-23.43,0,*77
1496992003.91,7027,18.31,74178.0,18.63,-22.57,-24.87,0,*78
1496992005.16,7028,18.31,74178.5,18.59,-19.57,-21.57,0,*7E
1496992006.37,7029,18.31,74176.5,18.59,-20.35,-22.53,0,*76
1496992007.6,7030,18.31,74176.0,18.59,-19.51,-21.67,0,*72
1496992008.82,7031,18.31,74180.0,18.63,-19.37,-21.33,0,*7B
1496992010.03,7032,18.31,74176.3,18.63,-18.41,-20.39,0,*73
1496992011.26,7033,18.31,74178.3,18.65,-18.45,-20.39,0,*70
1496992012.49,7034,18.31,74178.3,18.65,-18.83,-20.89,0,*76
1496992013.72,7035,18.31,74178.5,18.67,-19.31,-21.47,0,*7E
1496992014.92,7036,18.31,74176.5,18.69,-19.71,-21.73,0,*70
1496992016.14,7037,18.31,74176.5,18.67,-18.55,-20.63,0,*78
1496992017.36,7038,18.31,74176.0,18.67,-18.83,-20.83,0,*72
1496992018.57,7039,18.31,74176.0,18.69,-18.65,-20.63,0,*7B
1496992019.8,7040,18.31,74178.3,18.71,-18.73,-20.73,0,*7A
1496992021.03,7041,18.31,74176.8,18.73,-18.31,-20.43,0,*7C
1496992022.26,7042,18.31,74176.3,18.73,-17.87,-19.85,0,*7D
1496992023.49,7043,18.31,74178.0,18.75,-17.87,-19.99,0,*77
1496992024.74,7044,18.31,74180.8,18.75,-19.31,-21.17,0,*7E
1496992026.02,7045,18.31,74176.8,18.75,-18.93,-21.03,0,*73
1496992027.28,7046,18.31,74176.3,18.75,-18.31,-20.29,0,*71
1496992028.51,7047,18.31,74178.3,18.77,-18.41,-20.49,0,*73
1496992029.72,7048,18.31,74176.5,18.77,-18.07,-20.09,0,*7A
1496992030.92,7049,18.31,74176.5,18.81,-18.21,-20.29,0,*74
1496992032.15,7050,18.31,74178.5,18.79,-18.49,-20.43,0,*79
1496992033.35,7051,18.31,74176.5,18.81,-18.99,-21.09,0,*7D
1496992034.58,7052,18.31,74176.8,18.81,-18.83,-20.83,0,*76
1496992035.8,7053,18.31,74178.5,18.81,-18.69,-20.79,0,*76
1496992037.03,7054,18.31,74176.5,18.81,-18.21,-20.35,0,*75
1496992038.25,7055,18.31,74178.3,18.81,-18.21,-20.35,0,*74
1496992039.48,7056,18.31,74176.3,18.87,-17.49,-19.75,0,*7E
1496992040.74,7057,18.31,74178.8,18.87,-18.07,-20.19,0,*7A
1496992041.97,7058,18.31,74176.5,18.87,-18.73,-20.89,0,*7F
1496992043.23,7059,18.31,74178.3,18.87,-18.55,-20.69,0,*74
1496992044.46,7060,18.31,74176.3,18.89,-18.41,-20.53,0,*7C
1496992045.66,7061,18.31,74176.3,18.89,-17.83,-19.91,0,*78
1496992046.91,7062,18.31,74178.3,18.91,-17.31,-19.41,0,*76
1496992048.15,7063,18.31,74178.3,18.91,-17.31,-19.41,0,*77
1496992049.4,7064,18.31,74176.3,18.95,-17.03,-18.99,0,*71
1496992050.67,7065,18.31,74178.5,18.95,-17.55,-19.65,0,*71
1496992051.92,7066,18.31,74178.3,18.95,-17.93,-19.95,0,*77
1496992053.15,7067,18.31,74176.0,18.95,-18.21,-20.39,0,*7C
1496992054.41,7068,18.31,74176.3,18.95,-18.35,-20.43,0,*7B
1496992055.66,7069,18.31,74178.0,18.97,-18.35,-20.53,0,*79
1496992056.89,7070,18.31,74176.5,18.97,-18.59,-20.73,0,*79
1496992058.09,7071,18.31,74178.0,18.97,-18.07,-20.09,0,*7E
1496992059.34,7072,18.31,74178.0,18.99,-18.17,-20.35,0,*7D
1496992060.56,7073,18.31,74178.0,18.97,-18.11,-20.35,0,*74
1496992061.82,7074,18.31,74174.8,19.01,-18.99,-21.27,0,*7F
1496992063.06,7075,18.31,74178.3,18.99,-17.93,-20.05,0,*7A
1496992064.33,7076,18.31,74178.5,18.99,-18.55,-20.99,0,*79
1496992065.58,7077,18.31,74180.3,18.99,-19.91,-22.31,0,*71
1496992066.84,7078,18.31,74178.3,18.99,-19.57,-21.77,0,*75
1496992068.09,7079,18.31,74178.0,18.99,-18.01,-19.95,0,*71
1496992069.33,7080,18.31,74180.3,19.01,-17.63,-19.91,0,*78
1496992070.55,7081,18.31,74178.8,18.99,-18.83,-21.13,0,*79
1496992071.81,7082,18.31,74178.3,19.01,-18.79,-20.83,0,*77
1496992073.06,7083,18.31,74178.8,19.01,-18.01,-20.29,0,*79
1496992074.34,7084,18.31,74174.3,19.01,-19.23,-21.27,0,*70
1496992075.6,7085,18.31,74176.5,19.01,-19.47,-21.87,0,*79
1496992076.87,7086,18.31,74176.5,19.01,-19.85,-22.21,0,*7B
1496992078.12,7087,18.31,74180.3,18.99,-18.17,-20.19,0,*79
1496992079.39,7088,18.31,74176.5,18.99,-18.35,-20.53,0,*78
1496992080.64,7089,18.31,74176.8,18.99,-18.55,-20.69,0,*76
1496992081.9,7090,18.31,74176.8,18.99,-18.55,-20.79,0,*7F
1496992083.13,7091,18.31,74178.8,19.03,-18.17,-20.35,0,*72
1496992084.42,7092,18.31,74178.3,19.01,-18.31,-20.49,0,*7C
1496992085.64,7093,18.31,74178.5,19.03,-17.69,-19.85,0,*77
1496992086.89,7094,18.31,74178.8,19.03,-17.25,-19.41,0,*70
1496992088.11,7095,18.31,74174.8,19.07,-17.41,-19.51,0,*76
1496992089.33,7096,18.31,74174.8,19.07,-17.31,-19.23,0,*77
1496992090.57,7097,18.31,74176.3,19.09,-17.87,-20.15,0,*7A
1496992091.83,7098,18.31,74176.3,19.09,-18.93,-21.17,0,*7C
1496992093.05,7099,18.31,74178.3,19.11,-18.99,-21.33,0,*78
1496992094.28,7100,18.31,74176.5,19.11,-19.57,-21.77,0,*7A
1496992095.48,7101,18.31,74178.8,19.07,-19.95,-22.27,0,*74
1496992096.7,7102,18.31,74178.5,19.07,-18.89,-21.17,0,*7B
1496992097.96,7103,18.31,74176.3,19.09,-18.93,-21.17,0,*7F
1496992099.21,7104,18.31,74176.8,19.09,-18.35,-20.63,0,*76
1496992100.44,7105,18.31,74178.8,19.07,-17.97,-20.25,0,*7C
1496992101.69,7106,18.31,74174.8,19.09,-18.01,-20.05,0,*73